Content
SEND FEEDBACK

Daily
Averages
Monthly
Summary
United States of America

PYGA BEACH, GUAM


Home > North America > United States > Guam
Elevation: 6 meters     Latitude: 13 17N     Longitude: 144 39E

WEATHER
 
SELECT A DAY
Number of Records: 351,620;   Date Range: 1/1/95 - 10/20/14
 
SHARE

PRINT THIS DATA

[ ← Previous Day ]
WEATHER ALMANAC - 8 DECEMBER, 2013
[ Next Day → ]
[ °F ]   °C
Weather ElementAverageHighLow
Temperature27.4 °C29.1 °C (12:58 pm)25.5 °C (5:58 am)
Dewpoint24.5 °C25 °C (8:23 am)23.2 °C (11:58 pm)
Humidity84.5 %94 % (4:58 am)76 % (1:58 pm)
Barometer1011.2 hPa1013.2 hPa (9:38 am)1008.8 hPa (2:58 pm)
Wind Speed21.6 km/h27.8 km/h (10:58 am)
Weather ElementAverage
Visibility16.1 km
Wind DirectionENE (67.5 °)

Weather ElementTotal
Precipitation---
Cooling Degree Days9 (Base 18.3)
Growing Degree Days17.3 (Base 10)
Averaged from 61 records on 8 December, 2013
WEATHER CONDITIONS BREAKOUT
WIND DIRECTION BREAKOUT
WEATHER BY HOUR - 8 DECEMBER, 2013
[ °F ]   °C
Local TimeTemperatureDewpointHumidityBarometerVisibilityWind DirectionWind SpeedGust SpeedPrecipitationEventsConditions
1:58 AM25.8 °C24.4 °C92 %1010.5 hPa16.1 kmENE (60°)18.5 km/hPartly Cloudy
2:58 AM25.7 °C24.3 °C92 %1010.2 hPa16.1 kmENE (70°)16.7 km/hPartly Cloudy
3:58 AM25.7 °C24.5 °C93 %1010.2 hPa16.1 kmENE (60°)18.5 km/hScattered Clouds
4:58 AM25.6 °C24.5 °C94 %1010.2 hPa16.1 kmENE (70°)18.5 km/hScattered Clouds
5:58 AM25.5 °C24.1 °C92 %1010.5 hPa16.1 kmENE (60°)16.7 km/hPartly Cloudy
6:58 AM25.9 °C24.5 °C92 %1011.2 hPa16.1 kmENE (60°)20.4 km/hScattered Clouds
7:53 AM27 °C24 °C84 %1012.2 hPa16.1 kmENE (70°)20.4 km/hMostly Cloudy
7:58 AM27 °C24 °C84 %1011.5 hPa16.1 kmENE (60°)22.2 km/hScattered Clouds
8:23 AM28 °C25 °C84 %1012.9 hPa16.1 kmENE (60°)20.4 km/hMostly Cloudy
8:28 AM27 °C25 °C89 %1012.9 hPa16.1 kmENE (70°)24.1 km/hMostly Cloudy
8:33 AM27 °C24 °C84 %1012.9 hPa16.1 kmENE (70°)22.2 km/hMostly Cloudy
8:38 AM27 °C24 °C84 %1012.9 hPa16.1 kmENE (60°)22.2 km/hScattered Clouds
8:58 AM27.6 °C24.5 °C83 %1012.2 hPa16.1 kmNE (50°)22.2 km/hPartly Cloudy
9:38 AM28 °C25 °C84 %1013.2 hPa16.1 kmENE (60°)24.1 km/hMostly Cloudy
9:43 AM28 °C25 °C84 %1013.2 hPa16.1 kmENE (60°)24.1 km/hScattered Clouds
9:58 AM28.4 °C24.8 °C81 %1012.2 hPa16.1 kmNE (50°)20.4 km/hScattered Clouds
10:08 AM28 °C25 °C84 %1013.2 hPa16.1 kmENE (60°)24.1 km/hMostly Cloudy
10:13 AM28 °C25 °C84 %1013.2 hPa16.1 kmENE (70°)24.1 km/hMostly Cloudy
10:18 AM28 °C25 °C84 %1012.9 hPa16.1 kmENE (60°)24.1 km/hMostly Cloudy
10:23 AM28 °C25 °C84 %1012.9 hPa16.1 kmNE (50°)22.2 km/hMostly Cloudy
10:33 AM29 °C25 °C79 %1012.9 hPa16.1 kmENE (60°)22.2 km/hMostly Cloudy
10:43 AM28 °C25 °C84 %1012.5 hPa16.1 kmENE (60°)24.1 km/hScattered Clouds
10:58 AM28.8 °C24.8 °C79 %1011.2 hPa16.1 kmENE (60°)27.8 km/hScattered Clouds
11:18 AM29 °C25 °C79 %1012.2 hPa16.1 kmENE (60°)22.2 km/hMostly Cloudy
11:28 AM29 °C25 °C79 %1012.2 hPa16.1 kmENE (70°)25.9 km/hScattered Clouds
11:53 AM29 °C25 °C79 %1011.9 hPa16.1 kmENE (70°)22.2 km/hMostly Cloudy
11:58 AM28.9 °C24.9 °C79 %1011.2 hPa16.1 kmENE (60°)24.1 km/hMostly Cloudy
12:03 PM29 °C25 °C79 %1011.5 hPa16.1 kmEast (80°)24.1 km/hScattered Clouds
12:13 PM29 °C25 °C79 %1011.5 hPa16.1 kmENE (60°)25.9 km/hScattered Clouds
12:58 PM29.1 °C25 °C78 %1009.8 hPa16.1 kmENE (70°)24.1 km/hPartly Cloudy
1:48 PM29 °C25 °C79 %1010.5 hPa16.1 kmENE (60°)24.1 km/hMostly Cloudy
1:53 PM29 °C25 °C79 %1010.5 hPa16.1 kmENE (60°)20.4 km/hMostly Cloudy
1:58 PM28.9 °C24.4 °C76 %1009.5 hPa16.1 kmENE (60°)22.2 km/hMostly Cloudy
2:03 PM29 °C25 °C79 %1010.5 hPa16.1 kmEast (80°)24.1 km/hMostly Cloudy
2:08 PM29 °C25 °C79 %1010.5 hPa16.1 kmNE (50°)24.1 km/hMostly Cloudy
2:13 PM29 °C25 °C79 %1010.5 hPa16.1 kmENE (60°)20.4 km/hScattered Clouds
2:48 PM28 °C25 °C84 %1009.8 hPa16.1 kmEast (80°)20.4 km/hMostly Cloudy
2:53 PM28 °C25 °C84 %1009.8 hPa16.1 kmENE (60°)22.2 km/hScattered Clouds
2:58 PM28.1 °C24.8 °C82 %1008.8 hPa16.1 kmENE (60°)25.9 km/hScattered Clouds
3:11 PM28 °C24 °C79 %1009.8 hPa16.1 kmEast (90°)25.9 km/hLight Drizzle
3:20 PM28 °C24 °C79 %1009.8 hPa16.1 kmEast (80°)24.1 km/hPartly Cloudy
3:58 PM27.9 °C24.1 °C80 %1008.8 hPa16.1 kmEast (80°)18.5 km/h0 mmClear
4:58 PM27.4 °C24.3 °C83 %1009.5 hPa16.1 kmEast (80°)18.5 km/hClear
5:58 PM26.6 °C24.5 °C88 %1009.5 hPa16.1 kmEast (90°)22.2 km/hScattered Clouds
6:38 PM27 °C25 °C89 %1010.5 hPa16.1 kmEast (80°)16.7 km/hMostly Cloudy
6:48 PM27 °C24 °C84 %1010.8 hPa16.1 kmEast (90°)20.4 km/hScattered Clouds
6:58 PM26.5 °C24.5 °C89 %1009.8 hPa16.1 kmEast (80°)16.7 km/hScattered Clouds
7:03 PM27 °C25 °C89 %1011.2 hPa16.1 kmEast (80°)24.1 km/hMostly Cloudy
7:23 PM27 °C24 °C84 %1011.5 hPa16.1 kmENE (70°)20.4 km/hMostly Cloudy
7:33 PM26 °C24 °C89 %1011.5 hPa16.1 kmENE (70°)18.5 km/hMostly Cloudy
7:38 PM26 °C24 °C89 %1011.5 hPa16.1 kmENE (70°)16.7 km/hScattered Clouds
7:58 PM26.3 °C24.4 °C89 %1010.5 hPa16.1 kmEast (80°)18.5 km/hPartly Cloudy
8:58 PM26.2 °C24 °C88 %1011.2 hPa16.1 kmENE (70°)20.4 km/hScattered Clouds
9:03 PM26 °C24 °C89 %1011.9 hPa16.1 kmEast (80°)20.4 km/hMostly Cloudy
9:13 PM26 °C24 °C89 %1011.9 hPa16.1 kmENE (70°)20.4 km/hScattered Clouds
9:58 PM26.2 °C23.9 °C87 %1011.2 hPa16.1 kmENE (70°)18.5 km/hScattered Clouds
10:08 PM26 °C24 °C89 %1011.9 hPa16.1 kmENE (60°)18.5 km/hMostly Cloudy
10:13 PM26 °C24 °C89 %1011.9 hPa16.1 kmENE (70°)20.4 km/hMostly Cloudy
10:23 PM26 °C24 °C89 %1011.9 hPa16.1 kmENE (70°)20.4 km/hScattered Clouds
10:58 PM25.9 °C23.7 °C88 %1010.5 hPa16.1 kmENE (70°)20.4 km/hScattered Clouds
11:58 PM25.7 °C23.2 °C86 %1010.2 hPa16.1 kmENE (70°)16.7 km/hClear
Hourly data recorded from PGUA, located 0 kilometers away from Pyga Beach, Guam







STORIES FROM OUR PARTNERS